Andros, Greece

7:31 AM EET on December 08, 2016 (GMT +0200)
Syros

Weather History for LGSO - February, 2014

Change the Weather History Date:

Sunday, February 23, 2014

  Actual Average (LGMK) Record (LGMK)
Temperature  
Mean Temperature 58 °F -  
Max Temperature 64 °F 54 °F 64 °F (2016)
Min Temperature 51 °F 48 °F 37 °F (2003)
Degree Days  
Heating Degree Days 8    
Growing Degree Days 8 (Base 50)    
Moisture  
Dew Point 52 °F    
Average Humidity 84    
Maximum Humidity 100    
Minimum Humidity 56    
Precipitation  
Precipitation 0.00 in - - ()
Sea Level Pressure  
Sea Level Pressure 29.96 in    
Wind  
Wind Speed 4 mph ()    
Max Wind Speed 10 mph    
Max Gust Speed -    
Visibility 6.2 miles    
Events      
Averages and records for this station are not official NWS values.
T = Trace of Precipitation, MM = Missing Value Source: Averaged Metar Reports

Daily Weather History Graph

Daily Weather History Graph

Search for Another Location

Airport or City:

Trip Planner

Search our weather history database for the weather conditions in past years. The results will help you decide how hot, cold, wet, or windy it might be!

Date:

Astronomy

Feb. 23, 2014 Rise Set
Actual Time 6:59 AM EET 6:07 PM EET
Civil Twilight 6:33 AM EET 6:34 PM EET
Nautical Twilight 6:03 AM EET 7:04 PM EET
Astronomical Twilight 5:32 AM EET 7:34 PM EET
Moon 1:34 AM EET (2/23) 11:56 AM EET (2/23)
Length of Visible Light 12h 00m
Length of Day
11h 07m
Last Quarter, 42% of the Moon is Illuminated
Feb 23
Last Quarter
Mar 1
New
Mar 8
First Quarter
Mar 16
Full
Mar 24
Last Quarter

Hourly Weather History & Observations

Time (EET) Temp. Dew Point Humidity Pressure Visibility Wind Dir Wind Speed Gust Speed Precip Events Conditions
12:20 AM 53.6 °F 51.8 °F 94% 29.98 in - SW 4.6 mph - N/A   Unknown
12:50 AM 53.6 °F 51.8 °F 94% 29.98 in - Variable 2.3 mph - N/A   Unknown
1:20 AM 53.6 °F 51.8 °F 94% 29.98 in - Variable 3.5 mph - N/A   Unknown
1:50 AM 53.6 °F 51.8 °F 94% 29.98 in - Variable 2.3 mph - N/A   Unknown
2:20 AM 53.6 °F 51.8 °F 94% 29.98 in - Variable 1.2 mph - N/A   Unknown
2:50 AM 53.6 °F 51.8 °F 94% 29.95 in - Variable 1.2 mph - N/A   Unknown
3:20 AM 51.8 °F 51.8 °F 100% 29.95 in - Variable 1.2 mph - N/A   Unknown
3:50 AM 53.6 °F 51.8 °F 94% 29.95 in - Variable 2.3 mph - N/A   Unknown
4:20 AM 53.6 °F 51.8 °F 94% 29.95 in - Variable 3.5 mph - N/A   Unknown
4:50 AM 53.6 °F 51.8 °F 94% 29.95 in - Variable 3.5 mph - N/A   Unknown
5:20 AM 53.6 °F 53.6 °F 100% 29.95 in - Variable 3.5 mph - N/A   Unknown
5:50 AM 53.6 °F 53.6 °F 100% 29.95 in - Variable 2.3 mph - N/A   Unknown
6:20 AM 53.6 °F 51.8 °F 94% 29.95 in - Variable 2.3 mph - N/A   Unknown
6:50 AM 53.6 °F 53.6 °F 100% 29.95 in - Variable 1.2 mph - N/A   Unknown
7:20 AM 53.6 °F 53.6 °F 100% 29.95 in - Variable 3.5 mph - N/A   Unknown
7:50 AM 55.4 °F 53.6 °F 94% 29.95 in - Variable 3.5 mph - N/A   Unknown
8:20 AM 55.4 °F 53.6 °F 94% 29.98 in - Variable 3.5 mph - N/A   Unknown
8:50 AM 57.2 °F 55.4 °F 94% 29.98 in 6.2 mi West 4.6 mph - N/A   Scattered Clouds
9:50 AM 59.0 °F 53.6 °F 82% 29.98 in 6.2 mi West 4.6 mph - N/A   Partly Cloudy
10:50 AM 59.0 °F 53.6 °F 82% 29.98 in 6.2 mi West 10.4 mph - N/A   Mostly Cloudy
11:50 AM 60.8 °F 51.8 °F 72% 29.98 in 6.2 mi West 8.1 mph - N/A   Mostly Cloudy
12:50 PM 62.6 °F 51.8 °F 68% 29.95 in 6.2 mi West 6.9 mph - N/A   Scattered Clouds
1:50 PM 62.6 °F 51.8 °F 68% 29.95 in 6.2 mi Variable 3.5 mph - N/A   Partly Cloudy
2:20 PM 64.4 °F 48.2 °F 56% 29.92 in - ENE 4.6 mph - N/A   Unknown
2:50 PM 60.8 °F 53.6 °F 77% 29.92 in - NE 6.9 mph - N/A   Unknown
3:20 PM 60.8 °F 53.6 °F 77% 29.92 in - NW 4.6 mph - N/A   Unknown
3:50 PM 62.6 °F 48.2 °F 59% 29.92 in - West 6.9 mph - N/A   Unknown
4:20 PM 60.8 °F 50.0 °F 68% 29.92 in - West 6.9 mph - N/A   Unknown
4:50 PM 60.8 °F 51.8 °F 72% 29.92 in - North 6.9 mph - N/A   Unknown
5:20 PM 59.0 °F 50.0 °F 72% 29.92 in - NNE 8.1 mph - N/A   Unknown
5:50 PM 57.2 °F 50.0 °F 77% 29.92 in - NNE 4.6 mph - N/A   Unknown
6:20 PM 57.2 °F 50.0 °F 77% 29.95 in - NNE 4.6 mph - N/A   Unknown
6:50 PM 57.2 °F 50.0 °F 77% 29.95 in - Variable 2.3 mph - N/A   Unknown
7:20 PM 57.2 °F 50.0 °F 77% 29.95 in - Variable 3.5 mph - N/A   Unknown
7:50 PM 57.2 °F 50.0 °F 77% 29.95 in - NW 4.6 mph - N/A   Unknown
8:20 PM 57.2 °F 50.0 °F 77% 29.95 in - NE 6.9 mph - N/A   Unknown
8:50 PM 57.2 °F 51.8 °F 82% 29.95 in - NNE 6.9 mph - N/A   Unknown
9:20 PM 55.4 °F 51.8 °F 88% 29.98 in - North 5.8 mph - N/A   Unknown
9:50 PM 57.2 °F 51.8 °F 82% 29.98 in - NNW 6.9 mph - N/A   Unknown
10:20 PM 55.4 °F 50.0 °F 82% 29.98 in - NNW 5.8 mph - N/A   Unknown
10:50 PM 55.4 °F 50.0 °F 82% 29.98 in - North 6.9 mph - N/A   Unknown
11:20 PM 55.4 °F 50.0 °F 82% 29.98 in - NNE 5.8 mph - N/A   Unknown
11:50 PM 55.4 °F 50.0 °F 82% 29.98 in - NNW 5.8 mph - N/A   Unknown